Houghton Lake, MI

2:50 AM EDT on August 24, 2016 (GMT -0400)
Roscommon County

Weather History for KHTL - August, 2013

Change the Weather History Date:

Friday, August 23, 2013

  Actual Average Record
Temperature  
Mean Temperature 61 °F 64 °F  
Max Temperature 80 °F 76 °F 97 °F (1922)
Min Temperature 41 °F 52 °F 31 °F (1951)
Degree Days  
Heating Degree Days 4 3  
Month to date heating degree days 79 52  
Since 1 June heating degree days 226 223  
Since 1 July heating degree days 124 99  
Cooling Degree Days 0 2  
Month to date cooling degree days 34 62  
Year to date cooling degree days 299 249  
Since 1 June cooling degree days 259 233  
Growing Degree Days 10 (Base 50)    
Moisture  
Dew Point 48 °F    
Average Humidity 66    
Maximum Humidity 100    
Minimum Humidity 32    
Precipitation  
Precipitation 0.00 in 0.11 in 2.50 in (2008)
Month to date precipitation 0.59 2.58  
Year to date precipitation 18.96 18.30  
Sea Level Pressure  
Sea Level Pressure 30.19 in    
Wind  
Wind Speed 3 mph (SSE)    
Max Wind Speed 14 mph    
Max Gust Speed 17 mph    
Visibility 7 miles    
Events      
T = Trace of Precipitation, MM = Missing Value Source: NWS Daily Summary

Daily Weather History Graph

Daily Weather History Graph

Search for Another Location

Airport or City:

Trip Planner

Search our weather history database for the weather conditions in past years. The results will help you decide how hot, cold, wet, or windy it might be!

Date:

Astronomy

Aug. 23, 2013 Rise Set
Actual Time 6:51 AM EDT 8:30 PM EDT
Civil Twilight 6:20 AM EDT 9:00 PM EDT
Nautical Twilight 5:43 AM EDT 9:37 PM EDT
Astronomical Twilight 5:03 AM EDT 10:17 PM EDT
Moon 9:38 PM EDT (8/23) 9:54 AM EDT (8/23)
Length of Visible Light 14h 40m
Length of Day
13h 38m
Waning Gibbous, 91% of the Moon is Illuminated
Aug 23
Waning Gibbous
Aug 28
Last Quarter
Sep 5
New
Sep 12
First Quarter
Sep 19
Full

Hourly Weather History & Observations

Time (EDT) Temp. Windchill Dew Point Humidity Pressure Visibility Wind Dir Wind Speed Gust Speed Precip Events Conditions
12:53 AM 54.0 °F - 48.0 °F 80% 30.14 in 10.0 mi East 5.8 mph - N/A   Clear
1:53 AM 51.1 °F - 48.0 °F 89% 30.15 in 10.0 mi Calm Calm - N/A   Clear
2:53 AM 48.9 °F - 46.9 °F 93% 30.15 in 10.0 mi Calm Calm - N/A   Clear
3:53 AM 48.9 °F - 48.0 °F 97% 30.15 in 10.0 mi Calm Calm - N/A   Clear
4:53 AM 44.1 °F - 42.1 °F 93% 30.16 in 8.0 mi Calm Calm - N/A   Clear
5:48 AM 44.6 °F - 44.6 °F 100% 30.17 in 1.5 mi Calm Calm - N/A   Clear
5:53 AM 43.0 °F - 43.0 °F 100% 30.17 in 1.5 mi Calm Calm - N/A   Clear
5:57 AM 42.8 °F - 42.8 °F 100% 30.17 in 2.5 mi Calm Calm - N/A   Clear
6:04 AM 44.6 °F - 42.8 °F 93% 30.18 in 7.0 mi Calm Calm - N/A   Clear
6:11 AM 42.8 °F - 42.8 °F 100% 30.18 in 1.5 mi Calm Calm - N/A   Clear
6:14 AM 44.6 °F 43.1 °F 44.6 °F 100% 30.18 in 0.8 mi East 3.5 mph - N/A   Clear
6:33 AM 41.0 °F - 39.2 °F 93% 30.18 in 1.2 mi Calm Calm - N/A   Clear
6:46 AM 42.8 °F - 42.8 °F 100% 30.18 in 0.8 mi Calm Calm - N/A   Clear
6:53 AM 43.0 °F - 43.0 °F 100% 30.19 in 1.0 mi Calm Calm - N/A   Clear
6:56 AM 42.8 °F - 42.8 °F 100% 30.18 in 2.5 mi Calm Calm - N/A   Clear
7:03 AM 42.8 °F - 42.8 °F 100% 30.19 in 9.0 mi Calm Calm - N/A   Clear
7:43 AM 46.4 °F - 44.6 °F 93% 30.20 in 1.8 mi Calm Calm - N/A   Clear
7:50 AM 46.4 °F - 46.4 °F 100% 30.20 in 1.5 mi Calm Calm - N/A   Clear
7:53 AM 46.9 °F - 46.0 °F 97% 30.20 in 3.0 mi Calm Calm - N/A   Clear
8:53 AM 59.0 °F - 53.1 °F 81% 30.21 in 10.0 mi East 4.6 mph - N/A   Clear
9:53 AM 64.9 °F - 55.0 °F 70% 30.21 in 10.0 mi ENE 3.5 mph - N/A   Clear
10:53 AM 69.1 °F - 53.1 °F 57% 30.22 in 10.0 mi Calm Calm - N/A   Clear
11:53 AM 72.0 °F - 55.0 °F 55% 30.22 in 10.0 mi WSW 6.9 mph - N/A   Clear
12:53 PM 75.0 °F - 53.1 °F 46% 30.22 in 10.0 mi West 6.9 mph - N/A   Mostly Cloudy
1:53 PM 78.1 °F - 51.1 °F 39% 30.20 in 10.0 mi West 8.1 mph - N/A   Mostly Cloudy
2:53 PM 78.1 °F - 50.0 °F 37% 30.20 in 10.0 mi West 5.8 mph - N/A   Mostly Cloudy
3:53 PM 79.0 °F - 50.0 °F 36% 30.19 in 10.0 mi Variable 6.9 mph - N/A   Clear
4:53 PM 79.0 °F - 48.9 °F 35% 30.18 in 10.0 mi Variable 4.6 mph - N/A   Clear
5:53 PM 79.0 °F - 46.9 °F 32% 30.17 in 10.0 mi SW 4.6 mph - N/A   Clear
6:53 PM 77.0 °F - 48.9 °F 37% 30.17 in 10.0 mi SSW 4.6 mph - N/A   Clear
7:53 PM 71.1 °F - 57.0 °F 61% 30.18 in 10.0 mi SE 9.2 mph - N/A   Clear
8:53 PM 66.0 °F - 55.0 °F 68% 30.20 in 10.0 mi ESE 6.9 mph - N/A   Clear
9:53 PM 62.1 °F - 54.0 °F 75% 30.22 in 10.0 mi ESE 6.9 mph - N/A   Clear
10:53 PM 59.0 °F - 53.1 °F 81% 30.24 in 10.0 mi Calm Calm - N/A   Clear
11:53 PM 54.0 °F - 51.1 °F 90% 30.25 in 10.0 mi Calm Calm - N/A   Clear